Nashua, NH

6:41 AM EST on December 03, 2016 (GMT -0500)
Boire

Weather History for KASH - January, 2013

Change the Weather History Date:

Thursday, January 3, 2013

  Actual Average Record
Temperature  
Mean Temperature 10 °F -  
Max Temperature 22 °F 33 °F 62 °F (2000)
Min Temperature -2 °F 13 °F -8 °F (1981)
Degree Days  
Heating Degree Days 55    
Moisture  
Dew Point -4 °F    
Average Humidity 53    
Maximum Humidity 77    
Minimum Humidity 28    
Precipitation  
Precipitation 0.00 in - - ()
Sea Level Pressure  
Sea Level Pressure 30.09 in    
Wind  
Wind Speed 6 mph (NW)    
Max Wind Speed 13 mph    
Max Gust Speed 92 mph    
Visibility 10 miles    
Events      
Averages and records for this station are not official NWS values.
T = Trace of Precipitation, MM = Missing Value Source: NWS Daily Summary

Daily Weather History Graph

Daily Weather History Graph

Search for Another Location

Airport or City:

Trip Planner

Search our weather history database for the weather conditions in past years. The results will help you decide how hot, cold, wet, or windy it might be!

Date:

Astronomy

Jan. 03, 2013 Rise Set
Actual Time 7:16 AM EST 4:24 PM EST
Civil Twilight 6:44 AM EST 4:56 PM EST
Nautical Twilight 6:09 AM EST 5:32 PM EST
Astronomical Twilight 5:35 AM EST 6:06 PM EST
Moon 11:07 PM EST 10:17 AM EST
Length of Visible Light 10h 12m
Length of Day
9h 08m
Waning Gibbous, 65% of the Moon is Illuminated
Jan 3
Waning Gibbous
Jan 4
Last Quarter
Jan 11
New
Jan 18
First Quarter
Jan 26
Full

Hourly Weather History & Observations

Time (EST) Temp. Windchill Dew Point Humidity Pressure Visibility Wind Dir Wind Speed Gust Speed Precip Events Conditions
12:51 AM 5.0 °F - -8.9 °F 53% 30.15 in 10.0 mi North - - N/A   Clear
2:51 AM 4.1 °F - -8.9 °F 55% 30.16 in 10.0 mi North - - N/A   Clear
3:51 AM 1.0 °F - -9.9 °F 60% 30.15 in 10.0 mi North - - N/A   Clear
4:51 AM -0.9 °F - -9.9 °F 66% 30.14 in 10.0 mi North - - N/A   Clear
5:51 AM 0.1 °F - -8.9 °F 66% 30.14 in 10.0 mi North - - N/A   Clear
6:51 AM -2.9 °F - -9.9 °F 72% 30.14 in 10.0 mi North - - N/A   Clear
7:51 AM -2.9 °F - -9.9 °F 72% 30.15 in 10.0 mi Calm Calm - N/A   Clear
8:51 AM 2.1 °F - -6.9 °F 66% 30.14 in 10.0 mi Calm Calm - N/A   Clear
9:51 AM 12.0 °F -2.7 °F -6.0 °F 44% 30.14 in 10.0 mi NNW 12.7 mph - N/A   Clear
10:51 AM 15.1 °F 5.2 °F -6.0 °F 39% 30.12 in 10.0 mi NW 6.9 mph - N/A   Clear
11:30 AM 17.6 °F - -5.8 °F 35% 30.09 in 10.0 mi North - - N/A   Squalls
11:51 AM 19.0 °F 9.0 °F -4.9 °F 35% 30.10 in 10.0 mi WNW 8.1 mph - N/A   Clear
12:41 PM 21.2 °F - -4.0 °F 33% 30.05 in 10.0 mi North - - N/A   Squalls
12:51 PM 21.0 °F 8.6 °F -4.9 °F 32% 30.07 in 10.0 mi NW 12.7 mph - N/A   Clear
1:51 PM 22.1 °F 12.0 °F -6.0 °F 29% 30.05 in 10.0 mi North 9.2 mph 24.2 mph N/A   Clear
1:59 PM 21.2 °F 9.5 °F -7.6 °F 28% 30.03 in 10.0 mi NNW 11.5 mph 92.1 mph N/A   Squalls
2:51 PM 22.1 °F 11.3 °F -6.0 °F 29% 30.05 in 10.0 mi WNW 10.4 mph - N/A   Clear
3:51 PM 22.1 °F - -2.9 °F 33% 30.05 in 10.0 mi North - - N/A   Clear
4:51 PM 18.1 °F - 2.1 °F 50% 30.04 in 10.0 mi North - - N/A   Clear
5:51 PM 14.0 °F - 1.0 °F 56% 30.06 in 10.0 mi North - - N/A   Clear
6:51 PM 12.0 °F - 1.0 °F 61% 30.06 in 10.0 mi North - - N/A   Overcast
7:51 PM 13.1 °F - 3.0 °F 64% 30.06 in 10.0 mi North - - N/A   Mostly Cloudy
8:51 PM 11.1 °F - 2.1 °F 67% 30.06 in 10.0 mi North - - N/A   Clear
9:51 PM 11.1 °F - 5.0 °F 76% 30.05 in 10.0 mi North - - N/A   Clear
10:51 PM 11.1 °F - 4.1 °F 73% 30.03 in 10.0 mi North - - N/A   Scattered Clouds
11:51 PM 10.0 °F - 4.1 °F 77% 30.00 in 10.0 mi North - - N/A   Scattered Clouds